STARLINK-1121 (44929 NORAD) Tracking and Keplerian Element Data

This shows tracking and keplerian element data for the satellite.

Feedback or suggestion? Click here.




ElementValue
Catalog44929
NameSTARLINK-1121
Epoch Orbit710
Epoch Day52.91667824
Epoch Year2020
RAAN177.6983
Inclination52.9989
Eccentricity9.08E-05
Argument of Perigee51.171
Mean Anonmoly162.9707
Mean Motion15.05586136
Decay Rate0.00042029
L11 44929U 20001R 20052.91667824 .00042029 00000-0 28861-2 0 9997
L22 44929 52.9989 177.6983 0000908 51.1710 162.9707 15.05586136 7105

Live tracking and technical data element details for STARLINK-1121 (NORAD 44929). STARLINK-1121 can be tracked NOW for your location showing map with azimuth and elevation plus other details from your city location.

Track the satellite on the map from your city or location and see movement details for azimuth, elevation, latitude, longitude, range, height, and movement on the map or in text.







IsCatalogInMostPopularTable: catalog: 44929, numindb: 12
Update: records affected: 1



GetName: 44929 STARLINK-1121

Hit Count: updated at: Mon, 24 Feb 2020 17:29:17 GMT